Pagina principale
METAR-TAF:

METAR-TAF

Aeroporti :

Salerno, Italia

Aeroporto di Salerno-Costa d'Amalfi

latitudine: 40-37N, longitudine: 014-55E, altezza: 40 m

Osservazione

Il bollettino è stato emesso 49 minuti fa, alle 12:50 UTC
Vento 8 kt da sud/sud-est
Temperature 22°C
Umidità 73%
Pressione 1012 hPa
Visibilità 10 km o più
Nubi sparse ad un'altezza di 3000 ft

METAR: LIRI 191250Z 16008KT 9999 SCT030 22/17 Q1012

Ora: 15:39 (13:39 UTC)


TAF: mancante

Osservazioni e previsioni meteorologiche di più di 4000 aeroporti (messaggi METAR e TAF).

Le stazioni disponibili sono rappresentate dai dischi gialli e rossi sulla carta.

Puntare il mouse per vedere il nome della stazione.

Clicca sopra per visualizzare le osservazioni e previsioni meteorologiche.

Per cambiare la mappa : fare clic sui pulsanti verdi con una croce nera per ingrandire, il pulsante verde con un trattino per diminuire, o sulla freccia verde per le mappe adiacenti.


METAR-TAF: